Location: Greenwich
(51.4790°N, 0.0090°E)
Time: 00:16:01
(UTC+01:00)

Transit 4A - Pass Details

Date: 29 April 2024
Orbit: 871 x 971 km, 66.8° (Epoch: 18 May)

Event Time Altitude Azimuth Distance (km) Brightness Sun altitude
Rises 21:05:16 0° 317° (NW) 3,471 12.9 -6.8°
Reaches altitude 10° 21:07:59 10° 308° (NW) 2,530 12.0 -7.2°
Maximum altitude 21:13:03 31° 247° (WSW) 1,481 9.4 -7.8°
Drops below altitude 10° 21:18:08 10° 187° (S) 2,545 9.9 -8.5°
Sets 21:20:53 0° 178° (S) 3,494 10.5 -8.8°
